IRIDIUM 106 1 41917U 17003A 25347.92984089 .00000055 00000+0 12653-4 0 9993 2 41917 86.3984 165.9570 0002324 99.4090 260.7369 14.34217947466659 IRIDIUM 103 1 41918U 17003B 25347.98691681 .00000177 00000+0 56101-4 0 9994 2 41918 86.3984 165.8339 0001626 97.4396 262.6985 14.34214162466687 IRIDIUM 109 1 41919U 17003C 25347.99327669 .00000143 00000+0 43822-4 0 9997 2 41919 86.3987 165.8874 0001876 92.2860 267.8551 14.34220252466651 IRIDIUM 102 1 41920U 17003D 25347.96155042 .00000125 00000+0 37560-4 0 9992 2 41920 86.3986 165.8285 0001983 87.8506 272.2917 14.34218004466731 IRIDIUM 105 1 41921U 17003E 25347.93229017 .00000471 00000+0 16100-3 0 9994 2 41921 86.3977 134.3332 0001883 94.4619 265.6792 14.34218554468586 IRIDIUM 104 1 41922U 17003F 25347.97423707 .00000076 00000+0 19920-4 0 9996 2 41922 86.3985 165.8628 0001669 85.9837 274.1550 14.34218056466720 IRIDIUM 114 1 41923U 17003G 25347.98056949 .00000081 00000+0 22013-4 0 9991 2 41923 86.3986 165.8439 0001787 89.7736 270.3665 14.34216939466704 IRIDIUM 108 1 41924U 17003H 25347.93910173 .00000019 00000+0 -23541-6 0 9996 2 41924 86.3970 134.2202 0002088 90.9951 269.1484 14.34217629468551 IRIDIUM 112 1 41925U 17003J 25347.96789391 .00000042 00000+0 80526-5 0 9996 2 41925 86.3983 165.7002 0001849 86.5106 273.6301 14.34217502466725 IRIDIUM 111 1 41926U 17003K 25347.95521093 .00000045 00000+0 89293-5 0 9992 2 41926 86.3984 165.7716 0001940 93.6131 266.5286 14.34217752466706 IRIDIUM 113 1 42803U 17039A 25347.86540688 .00000092 00000+0 25658-4 0 9993 2 42803 86.3974 39.6250 0001993 94.4194 265.7229 14.34218122444625 IRIDIUM 123 1 42804U 17039B 25347.97665376 .00000363 00000+0 12261-3 0 9994 2 42804 86.3968 71.0625 0002034 104.5803 255.5618 14.34215683443405 IRIDIUM 120 1 42805U 17039C 25347.85906476 .00000279 00000+0 92628-4 0 9993 2 42805 86.3963 39.4336 0002513 97.4104 262.7377 14.34218265444619 IRIDIUM 115 1 42806U 17039D 25347.65857415 .00000451 00000+0 12798-3 0 9991 2 42806 86.4503 39.6215 0002480 106.7966 253.3507 14.43277977447509 IRIDIUM 118 1 42807U 17039E 25347.93859202 .00000183 00000+0 58385-4 0 9994 2 42807 86.3966 71.0770 0001947 95.0754 265.0664 14.34215990443394 IRIDIUM 117 1 42808U 17039F 25347.95762665 .00000266 00000+0 87789-4 0 9995 2 42808 86.3967 71.0287 0001987 101.9526 258.1892 14.34216529443426 IRIDIUM 126 1 42809U 17039G 25347.98299710 .00000274 00000+0 90859-4 0 9996 2 42809 86.3968 71.0663 0001880 98.8961 261.2448 14.34216830443400 IRIDIUM 124 1 42810U 17039H 25348.00838224 .00000285 00000+0 78665-4 0 9994 2 42810 86.4493 7.7769 0002290 97.6155 262.5306 14.43278111448409 IRIDIUM 128 1 42811U 17039J 25347.83419858 .00000376 00000+0 12732-3 0 9996 2 42811 86.3965 102.6623 0002352 98.4226 261.7237 14.34217477443412 IRIDIUM 121 1 42812U 17039K 25347.93225703 -.00000105 00000+0 -44397-4 0 9997 2 42812 86.3965 71.1138 0002116 95.1370 265.0067 14.34217225443279 IRIDIUM 133 1 42955U 17061A 25347.86592273 .00000429 00000+0 14621-3 0 9994 2 42955 86.3968 102.7623 0002086 97.5939 262.5493 14.34217711428215 IRIDIUM 100 1 42956U 17061B 25347.85956430 .00000019 00000+0 -43830-6 0 9996 2 42956 86.3964 102.6877 0002020 98.4563 261.6862 14.34216168428218 IRIDIUM 122 1 42957U 17061C 25347.82785408 .00000127 00000+0 38185-4 0 9993 2 42957 86.3966 102.7013 0001932 98.5435 261.5980 14.34218314428219 IRIDIUM 129 1 42958U 17061D 25347.85322539 .00000260 00000+0 85904-4 0 9998 2 42958 86.3968 102.7552 0001784 86.7233 273.4167 14.34216795428232 IRIDIUM 119 1 42959U 17061E 25347.82151145 .00000273 00000+0 90442-4 0 9996 2 42959 86.3968 102.7632 0001775 93.3355 266.8044 14.34215103428244 IRIDIUM 107 1 42960U 17061F 25347.84054001 .00000227 00000+0 73963-4 0 9991 2 42960 86.3969 102.7755 0001990 108.0353 252.1060 14.34217159428254 IRIDIUM 132 1 42961U 17061G 25347.84687790 .00000511 00000+0 17537-3 0 9999 2 42961 86.3963 102.7538 0001969 98.2657 261.8763 14.34216708428257 IRIDIUM 136 1 42962U 17061H 25347.87859509 .00000334 00000+0 11211-3 0 9998 2 42962 86.3966 102.7462 0001869 96.8505 263.2904 14.34216724428275 IRIDIUM 139 1 42963U 17061J 25347.88493789 .00000354 00000+0 11945-3 0 9990 2 42963 86.3971 102.8029 0002047 100.3167 259.8260 14.34215989428285 IRIDIUM 125 1 42964U 17061K 25347.87222448 .00000155 00000+0 48430-4 0 9991 2 42964 86.3969 102.8654 0001581 108.9791 251.1577 14.34213736428291 IRIDIUM 135 1 43070U 17083A 25347.84636994 .00000306 00000+0 10210-3 0 9998 2 43070 86.3971 39.4817 0002105 92.2716 267.8721 14.34213769417585 IRIDIUM 138 1 43071U 17083B 25347.87174907 .00000015 00000+0 -16480-5 0 9998 2 43071 86.3977 39.1377 0001664 92.4556 267.6831 14.34217636417579 IRIDIUM 116 1 43072U 17083C 25347.63073012 .00000253 00000+0 83103-4 0 9996 2 43072 86.3970 39.5600 0002467 96.5022 263.6455 14.34216906417578 IRIDIUM 130 1 43073U 17083D 25347.87809764 .00000347 00000+0 11673-3 0 9990 2 43073 86.3976 39.7139 0002431 101.5057 258.6412 14.34218266417556 IRIDIUM 151 1 43074U 17083E 25347.64341649 .00000095 00000+0 27002-4 0 9993 2 43074 86.3970 39.6083 0002235 94.3295 265.8156 14.34218069417548 IRIDIUM 134 1 43075U 17083F 25347.89077185 .00000334 00000+0 11237-3 0 9990 2 43075 86.3971 39.5103 0002209 99.8423 260.3022 14.34213253417548 IRIDIUM 137 1 43076U 17083G 25347.90346409 .00000148 00000+0 45734-4 0 9994 2 43076 86.3974 39.5941 0002667 89.8671 270.2830 14.34217557417610 IRIDIUM 141 1 43077U 17083H 25347.89711960 .00000047 00000+0 95512-5 0 9999 2 43077 86.3971 39.4382 0001971 96.6300 263.5120 14.34217194417612 IRIDIUM 153 1 43078U 17083J 25347.98883516 -.00000092 00000+0 -39800-4 0 9996 2 43078 86.3966 7.8901 0001688 96.4631 263.6757 14.34217947418730 IRIDIUM 131 1 43079U 17083K 25347.67512938 .00000036 00000+0 59236-5 0 9992 2 43079 86.3973 39.7043 0002087 93.7954 266.3480 14.34217898417515 IRIDIUM 144 1 43249U 18030A 25347.99517896 .00000031 00000+0 38921-5 0 9990 2 43249 86.3967 7.8209 0002357 95.4021 264.7444 14.34217765403599 IRIDIUM 149 1 43250U 18030B 25347.51314115 .00000221 00000+0 71913-4 0 9997 2 43250 86.3969 7.9914 0002212 93.6394 266.5055 14.34218628403542 IRIDIUM 157 1 43251U 18030C 25347.95077903 .00000360 00000+0 12164-3 0 9993 2 43251 86.3970 7.8576 0002211 88.3152 271.8297 14.34219579403587 IRIDIUM 140 1 43252U 18030D 25347.96980815 .00000070 00000+0 17836-4 0 9990 2 43252 86.3971 7.8628 0002241 95.3843 264.7609 14.34217051403643 IRIDIUM 145 1 43253U 18030E 25347.95711706 .00000335 00000+0 11238-3 0 9994 2 43253 86.3969 7.8405 0002545 96.9451 263.2034 14.34221098403577 IRIDIUM 146 1 43254U 18030F 25348.00786045 .00000279 00000+0 92412-4 0 9991 2 43254 86.3970 7.8323 0002335 94.8789 265.2674 14.34220044403591 IRIDIUM 148 1 43255U 18030G 25347.97614958 .00000158 00000+0 49395-4 0 9998 2 43255 86.3972 7.8858 0002276 89.8566 270.2891 14.34217082403627 IRIDIUM 142 1 43256U 18030H 25348.01420746 .00000288 00000+0 95722-4 0 9994 2 43256 86.3964 7.7655 0002551 96.2583 263.8903 14.34217302403593 IRIDIUM 150 1 43257U 18030J 25347.98248982 .00000351 00000+0 11816-3 0 9992 2 43257 86.3972 7.8892 0002382 95.3731 264.7736 14.34220133403617 IRIDIUM 143 1 43258U 18030K 25347.96346147 .00000332 00000+0 11142-3 0 9994 2 43258 86.3973 7.9824 0002475 96.3084 263.8394 14.34220277403541 IRIDIUM 161 1 43478U 18047C 25347.98632275 .00000192 00000+0 51180-4 0 9999 2 43478 86.4506 165.8597 0001875 85.6479 274.4936 14.43279804398421 IRIDIUM 152 1 43479U 18047D 25347.93618153 -.00000010 00000+0 -10779-4 0 9994 2 43479 86.3987 165.7412 0001707 89.8394 270.2998 14.34217789395934 IRIDIUM 147 1 43480U 18047E 25347.94252367 .00000076 00000+0 19923-4 0 9998 2 43480 86.3983 165.7405 0002006 86.4161 273.7264 14.34217698395935 IRIDIUM 110 1 43481U 18047F 25347.94886368 .00000112 00000+0 33084-4 0 9998 2 43481 86.3985 165.8246 0001629 78.4812 281.6567 14.34217974395926 IRIDIUM 162 1 43482U 18047G 25347.98001848 .00000225 00000+0 60862-4 0 9994 2 43482 86.4505 165.7558 0001793 97.0012 263.1393 14.43278032398413 IRIDIUM 160 1 43569U 18061A 25347.89470282 .00000177 00000+0 56209-4 0 9994 2 43569 86.3979 134.2697 0001868 87.5204 272.6206 14.34218871386812 IRIDIUM 166 1 43570U 18061B 25347.85030509 .00000179 00000+0 56985-4 0 9999 2 43570 86.3974 134.2409 0002119 92.8468 267.2970 14.34217315386833 IRIDIUM 158 1 43571U 18061C 25347.95812445 .00000087 00000+0 24091-4 0 9999 2 43571 86.3971 134.2055 0001736 96.6014 263.5380 14.34220254386819 IRIDIUM 165 1 43572U 18061D 25347.91373102 .00000392 00000+0 13282-3 0 9996 2 43572 86.3972 134.2668 0002058 90.9022 269.2409 14.34216788386839 IRIDIUM 155 1 43573U 18061E 25347.87567647 .00000144 00000+0 44433-4 0 9999 2 43573 86.3973 134.1614 0002069 99.9037 260.2392 14.34217910386793 IRIDIUM 154 1 43574U 18061F 25347.92641883 .00000436 00000+0 14845-3 0 9998 2 43574 86.3977 134.2644 0002050 92.4987 267.6444 14.34219180386851 IRIDIUM 163 1 43575U 18061G 25347.90738643 .00000414 00000+0 14092-3 0 9998 2 43575 86.3972 134.1936 0001822 93.5872 266.5532 14.34215922386824 IRIDIUM 156 1 43576U 18061H 25347.95178287 .00000426 00000+0 14522-3 0 9997 2 43576 86.3973 134.1821 0002118 99.2201 260.9234 14.34221072386827 IRIDIUM 164 1 43577U 18061J 25347.93275113 .00000345 00000+0 11609-3 0 9995 2 43577 86.3977 134.2273 0002155 90.9194 269.2249 14.34213700386865 IRIDIUM 159 1 43578U 18061K 25347.97081413 .00000393 00000+0 13337-3 0 9991 2 43578 86.3973 134.1523 0001986 89.4841 270.6582 14.34218645386838 IRIDIUM 180 1 43922U 19002A 25347.97031153 .00000066 00000+0 16680-4 0 9998 2 43922 86.3969 71.0268 0001998 93.8084 266.3340 14.34218000362442 IRIDIUM 176 1 43923U 19002B 25347.74309796 .00001563 00000+0 24396-3 0 9990 2 43923 86.6088 71.0924 0002284 95.1408 265.0070 14.72246645371962 IRIDIUM 168 1 43924U 19002C 25347.75465778 .00000417 00000+0 14170-3 0 9991 2 43924 86.3968 71.1891 0002038 97.5362 262.6065 14.34221269362390 IRIDIUM 173 1 43925U 19002D 25347.74197629 .00000446 00000+0 15212-3 0 9998 2 43925 86.3966 71.0909 0001961 101.5859 258.5557 14.34217802362375 IRIDIUM 169 1 43926U 19002E 25347.81656350 .00000570 00000+0 17992-3 0 9993 2 43926 86.4221 102.7108 0001990 126.9786 233.1595 14.38606138363578 IRIDIUM 172 1 43927U 19002F 25347.94493796 .00000249 00000+0 81741-4 0 9998 2 43927 86.3965 71.0134 0001962 93.1624 266.9797 14.34219579362410 IRIDIUM 175 1 43928U 19002G 25348.01023217 .00001235 00000+0 19193-3 0 9992 2 43928 86.1503 13.3141 0003216 90.9538 269.2047 14.72237989371991 IRIDIUM 171 1 43929U 19002H 25347.78637623 .00000210 00000+0 68016-4 0 9999 2 43929 86.3976 71.3658 0002335 99.6581 260.4879 14.34217936362387 IRIDIUM 170 1 43930U 19002J 25347.95317029 .00000103 00000+0 12430-4 0 9995 2 43930 86.6086 71.0079 0002235 91.2785 268.8688 14.72243261372003 IRIDIUM 167 1 43931U 19002K 25347.84980322 .00000254 00000+0 83501-4 0 9990 2 43931 86.3967 71.0737 0002412 105.5893 254.5569 14.34216712362396 IRIDIUM 181 1 56726U 23068S 25347.92765493 .00000596 00000+0 17098-3 0 9998 2 56726 86.4511 134.2295 0002407 85.1454 275.0021 14.43307575135712 IRIDIUM 177 1 56727U 23068T 25347.68855792 .00001566 00000+0 20277-3 0 9995 2 56727 86.1972 56.8792 0002308 83.5555 276.5929 14.80209802138920 IRIDIUM 174 1 56728U 23068U 25347.94080681 .00001633 00000+0 25503-3 0 9994 2 56728 86.6094 71.1422 0002235 88.9062 271.2411 14.72253805138765 IRIDIUM 178 1 56729U 23068V 25347.81286855 .00001198 00000+0 15425-3 0 9990 2 56729 86.6536 102.8509 0002398 97.5898 262.5596 14.80237661138946 IRIDIUM 179 1 56730U 23068W 25347.87510427 .00001899 00000+0 24652-3 0 9993 2 56730 86.6773 111.2507 0002448 89.9976 270.1526 14.80227425138957